Date String (YYYY-MM-DD hh:mm:ss) UTC,Instrument flags,Ambient pressure (hPa),Sample flow (lpm),Bypass flow (lpm),Sample temperature (°C),Ambient temperature (°C),ASC tube jacket temperature (°C),LED temperature (°C),Box temperature (°C),Sample RH (%),Span deviation,Mass concentration (μg/m³),Mass concentration (μg/m³),Mass concentration (μg/m³)
DateTimeUTC,F1_M11,P_M11,Q1_M11,Q2_M11,T1_M11,T2_M11,T3_M11,T4_M11,T5_M11,U1_M11,ZSPAN_M11,X0_M11,X2_M11,X1_M11
2023-05-20 08:00:00,,0838.0,5.00,0.00,28.3,26.7,00.0,36.6,29.9,27.2,0002.6,0133.72,0097.09,0091.62
2023-05-20 08:01:00,,0838.0,5.00,0.00,28.3,26.7,00.0,36.6,29.9,27.1,0002.5,0133.40,0096.93,0091.46
2023-05-20 08:02:00,,0838.0,5.00,0.00,28.3,26.7,00.0,36.6,29.9,27.5,0002.5,0132.65,0096.50,0091.06
2023-05-20 08:03:00,,0838.0,4.99,0.00,28.3,26.7,00.0,36.6,29.9,27.7,0002.5,0131.57,0095.89,0090.50
2023-05-20 08:04:00,,0838.0,5.00,0.00,28.3,26.7,00.0,36.6,29.9,27.7,0002.5,0130.66,0095.37,0090.05
2023-05-20 08:05:00,,0838.0,5.00,0.00,28.3,26.7,00.0,36.6,29.9,27.7,0002.5,0130.51,0095.18,0089.84
2023-05-20 08:06:00,,0838.0,5.00,0.00,28.3,26.7,00.0,36.6,29.9,27.8,0002.6,0129.59,0094.80,0089.49
2023-05-20 08:07:00,,0838.0,5.00,0.00,28.3,26.7,00.0,36.6,29.9,28.0,0002.6,0128.79,0094.25,0089.02
2023-05-20 08:08:00,,0838.0,5.00,0.00,28.3,26.7,00.0,36.7,29.9,27.9,0002.6,0128.54,0093.95,0088.74
2023-05-20 08:09:00,,0837.8,5.01,0.00,28.3,26.7,00.0,36.7,29.9,28.0,0002.6,0128.81,0094.02,0088.82
2023-05-20 08:10:00,,0837.8,4.99,0.00,28.3,26.7,00.0,36.7,29.9,27.9,0002.6,0128.77,0093.85,0088.67
2023-05-20 08:11:00,,0837.8,4.99,0.00,28.3,26.7,00.0,36.7,29.9,27.9,0002.6,0128.24,0093.51,0088.38
2023-05-20 08:12:00,,0837.8,5.00,0.00,28.3,26.7,00.0,36.7,29.9,27.8,0002.5,0127.95,0093.16,0088.04
2023-05-20 08:13:00,,0837.8,5.00,0.00,28.3,26.7,00.0,36.7,29.9,27.9,0002.6,0128.36,0092.97,0087.83
2023-05-20 08:14:00,,0837.9,5.01,0.00,28.3,26.7,00.0,36.7,29.9,28.1,0002.6,0127.92,0092.75,0087.64
2023-05-20 08:15:00,,0837.8,5.00,0.00,28.3,26.7,00.0,36.7,29.9,28.2,0002.6,0127.90,0092.61,0087.46
2023-05-20 08:16:00,,0837.8,5.00,0.00,28.3,26.7,00.0,36.7,29.9,27.8,0002.6,0127.69,0092.57,0087.44
2023-05-20 08:17:00,,0837.8,5.00,0.00,28.3,26.7,00.0,36.7,29.9,27.7,0002.6,0127.63,0092.64,0087.53
2023-05-20 08:18:00,,0837.8,5.00,0.00,28.3,26.7,00.0,36.7,29.9,27.5,0002.6,0128.20,0092.80,0087.63
2023-05-20 08:19:00,,0837.8,4.99,0.00,28.3,26.7,00.0,36.7,29.9,27.6,0002.6,0128.12,0092.90,0087.75
2023-05-20 08:20:00,,0837.8,4.99,0.00,28.3,26.7,00.0,36.7,29.9,27.7,0002.5,0127.99,0092.97,0087.85
2023-05-20 08:21:00,,0837.8,5.00,0.00,28.3,26.7,00.0,36.7,29.9,27.7,0002.6,0127.73,0092.85,0087.80
2023-05-20 08:22:00,,0837.8,5.01,0.00,28.3,26.7,00.0,36.7,30.0,27.8,0002.6,0127.71,0092.71,0087.63
2023-05-20 08:23:00,,0837.7,5.01,0.00,28.4,26.7,00.0,36.7,30.0,27.8,0002.6,0127.65,0092.58,0087.51
2023-05-20 08:24:00,,0837.7,5.00,0.00,28.4,26.7,00.0,36.7,30.0,27.7,0002.6,0126.66,0092.38,0087.38
2023-05-20 08:25:00,,0837.8,5.00,0.00,28.4,26.7,00.0,36.7,30.0,27.5,0002.6,0127.06,0092.63,0087.51
2023-05-20 08:26:00,,0837.8,4.99,0.00,28.4,26.7,00.0,36.7,30.0,27.1,0002.6,0127.44,0093.01,0087.90
2023-05-20 08:27:00,,0837.8,4.99,0.00,28.4,26.7,00.0,36.7,30.0,26.9,0002.6,0128.11,0093.39,0088.16
2023-05-20 08:28:00,,0837.8,5.01,0.00,28.4,26.7,00.0,36.7,29.9,26.7,0002.6,0128.69,0093.73,0088.43
2023-05-20 08:29:00,,0837.8,5.01,0.00,28.4,26.7,00.0,36.7,30.0,26.6,0002.6,0128.70,0094.09,0088.85
2023-05-20 08:30:00,,0837.8,5.00,0.00,28.3,26.7,00.0,36.7,30.0,26.5,0002.5,0129.32,0094.55,0089.29
2023-05-20 08:31:00,,0837.8,4.99,0.00,28.3,26.7,00.0,36.7,30.0,26.5,0002.5,0130.01,0095.00,0089.67
2023-05-20 08:32:00,,0837.7,5.00,0.00,28.4,26.7,00.0,36.7,29.9,26.4,0002.5,0131.04,0095.60,0090.19
2023-05-20 08:33:00,,0837.7,5.00,0.00,28.3,26.7,00.0,36.7,30.0,26.4,0002.6,0132.08,0096.36,0090.89
2023-05-20 08:34:00,,0837.7,5.00,0.00,28.4,26.7,00.0,36.7,30.0,26.4,0002.6,0133.21,0097.10,0091.60
2023-05-20 08:35:00,,0837.7,5.00,0.00,28.4,26.7,00.0,36.7,29.9,26.4,0002.6,0134.62,0097.90,0092.41
2023-05-20 08:36:00,,0837.7,5.01,0.00,28.4,26.7,00.0,36.7,29.9,26.4,0002.6,0135.71,0098.53,0093.05
2023-05-20 08:37:00,,0837.7,5.01,0.00,28.4,26.7,00.0,36.7,29.9,26.4,0002.6,0136.70,0098.96,0093.48
2023-05-20 08:38:00,,0837.7,5.00,0.00,28.4,26.7,00.0,36.7,29.9,26.7,0002.6,0136.28,0098.79,0093.44
2023-05-20 08:39:00,,0837.7,5.00,0.00,28.4,26.7,00.0,36.7,29.9,26.6,0002.6,0135.88,0098.63,0093.32
2023-05-20 08:40:00,,0837.7,5.00,0.00,28.3,26.7,00.0,36.7,29.9,26.5,0002.7,0135.93,0098.55,0093.16
2023-05-20 08:41:00,,0837.7,5.00,0.00,28.3,26.7,00.0,36.7,29.9,26.5,0002.7,0135.98,0098.38,0092.93
2023-05-20 08:42:00,,0837.7,4.99,0.00,28.3,26.7,00.0,36.7,29.9,26.5,0002.8,0136.26,0098.18,0092.75
2023-05-20 08:43:00,,0837.6,5.01,0.00,28.3,26.7,00.0,36.7,29.9,26.5,0002.7,0136.28,0097.96,0092.56
2023-05-20 08:44:00,,0837.7,5.01,0.00,28.3,26.7,00.0,36.7,29.9,26.5,0002.7,0135.87,0097.70,0092.29
2023-05-20 08:45:00,,0837.7,4.98,0.00,28.3,26.7,00.0,36.7,29.9,26.5,0002.6,0135.17,0097.22,0091.81
2023-05-20 08:46:00,,0837.6,5.00,0.00,28.3,26.7,00.0,36.7,29.9,26.5,0002.6,0134.31,0096.82,0091.39
2023-05-20 08:47:00,,0837.6,5.01,0.00,28.3,26.7,00.0,36.7,29.9,26.8,0002.6,0134.22,0096.19,0090.80
2023-05-20 08:48:00,,0837.6,5.01,0.00,28.3,26.7,00.0,36.7,29.9,26.9,0002.6,0132.66,0095.32,0090.01
2023-05-20 08:49:00,,0837.6,4.98,0.00,28.3,26.7,00.0,36.7,29.9,26.7,0002.6,0132.42,0095.27,0089.96
2023-05-20 08:50:00,,0837.6,5.01,0.00,28.3,26.7,00.0,36.7,29.9,26.6,0002.5,0132.86,0095.41,0090.08
2023-05-20 08:51:00,,0837.6,5.01,0.00,28.3,26.7,00.0,36.7,29.9,26.5,0002.5,0133.19,0095.38,0090.14
2023-05-20 08:52:00,,0837.7,5.00,0.00,28.3,26.7,00.0,36.7,29.9,26.5,0002.4,0133.68,0095.42,0090.23
2023-05-20 08:53:00,,0837.6,4.98,0.00,28.3,26.7,00.0,36.7,29.9,26.5,0002.4,0132.87,0095.33,0090.21
2023-05-20 08:54:00,,0837.6,5.00,0.00,28.3,26.7,00.0,36.7,29.9,26.7,0002.4,0132.03,0095.13,0089.99
2023-05-20 08:55:00,,0837.6,5.01,0.00,28.3,26.7,00.0,36.7,29.9,26.5,0002.3,0132.03,0095.13,0090.00
2023-05-20 08:56:00,,0837.6,5.00,0.00,28.3,26.7,00.0,36.7,29.9,26.5,0002.3,0132.47,0095.50,0090.36
2023-05-20 08:57:00,,0837.6,4.99,0.00,28.3,26.7,00.0,36.7,29.9,26.4,0002.4,0132.98,0095.86,0090.66
2023-05-20 08:58:00,,0837.6,5.00,0.00,28.3,26.7,00.0,36.7,29.9,26.4,0002.5,0132.86,0096.32,0091.09
2023-05-20 08:59:00,,0837.6,5.01,0.00,28.3,26.7,00.0,36.7,29.9,26.4,0002.5,0134.41,0097.18,0091.90
